Home > Weather > Mumbai > Past weeks

Flag for India Weather for the Past 2 Weeks in Mumbai, Maharashtra, India

Now
81 °F

Passing clouds.


Feels Like: 83 °F
Forecast: 73 / 78 °F
Wind: 13 mph from West

Location: Mumbai / Santacruz

Current Time: Feb 11, 2016 at 2:15:24 PM

Latest Report: Feb 11, 2016 at 1:30 PM


Visibility: 3 mi

Pressure: 29.89 "Hg

Humidity: 62%

Dew point: 66 °F

Location of MumbaiLocation

Historic Weather in Mumbai — Graph

°F

Mumbai Temperature Yesterday

Maximum temperature yesterday: 86 °F (at 3:00 PM)
Minimum temperature yesterday: 73 °F (at 4:00 AM)
Average temperature yesterday: 80 °F

High & Low Weather Summary for the Past Weeks

 TemperatureHumidityPressure
High91 °F (Jan 28, 4:00 PM)88% (Feb 6, 4:30 AM)30.04 "Hg (Feb 6, 4:30 AM)
Low66 °F (Jan 28, 5:30 AM)24% (Jan 28, 12:30 PM)29.80 "Hg (Feb 6, 4:30 AM)
Average79 °F58%29.93 "Hg
* Reported Jan 27 12:30 PM — Feb 11 1:00 PM, Mumbai, Weather by CustomWeather, © 2016

Note: Actual official high and low records may vary slightly from our data, if they occured in-between our weather recording intervals... More about our weather records

Advertising

Mumbai Weather History for the Previous 24 Hours

 ConditionsComfort  
Time TempWeatherWind HumidityBarometerVisibility
1:00 PM
Thu, Feb 11
81 °FPassing clouds.13 mph62%29.92 "Hg3 mi
12:30 PM81 °FClear.10 mph54%29.92 "Hg3 mi
12:00 PM79 °FClear.12 mph58%29.95 "Hg2 mi
11:30 AM81 °FClear.10 mph54%29.95 "Hg2 mi
11:00 AM81 °FClear.8 mph54%29.95 "Hg2 mi
10:30 AM81 °FClear.6 mph54%29.95 "Hg2 mi
10:00 AM79 °FHaze.3 mph61%29.95 "Hg2 mi
9:30 AM77 °FHaze.No wind65%29.95 "Hg2 mi
9:00 AM75 °FHaze.No wind69%29.92 "Hg1 mi
8:00 AM75 °FHaze.3 mph74%29.92 "Hg1 mi
7:30 AM75 °FHaze.6 mph74%29.89 "Hg1 mi
7:00 AM73 °FHaze.5 mph78%29.89 "Hg1 mi
6:30 AM73 °FHaze.6 mph83%29.86 "Hg1 mi
5:30 AM73 °FHaze.5 mph83%29.86 "Hg2 mi
5:00 AM73 °FHaze.6 mph83%29.86 "Hg2 mi
4:30 AM73 °FHaze.5 mph83%29.86 "Hg2 mi
3:30 AM75 °FHaze.5 mph83%29.86 "Hg2 mi
2:30 AM75 °FHaze.6 mph83%29.86 "Hg2 mi
2:00 AM75 °FHaze.7 mph83%29.86 "Hg2 mi
1:30 AM75 °FHaze.6 mph83%29.86 "Hg2 mi
1:00 AM75 °FHaze.5 mph83%29.86 "Hg2 mi
12:30 AM77 °FHaze.6 mph79%29.89 "Hg2 mi
12:00 AM77 °FHaze.6 mph79%29.89 "Hg2 mi
11:30 PM
Wed, Feb 10
77 °FHaze.6 mph79%29.89 "Hg2 mi
11:00 PM77 °FHaze.6 mph79%29.89 "Hg3 mi
10:30 PM79 °FHaze.6 mph70%29.89 "Hg3 mi
10:00 PM79 °FHaze.7 mph70%29.89 "Hg3 mi
9:30 PM79 °FHaze.6 mph70%29.89 "Hg3 mi
9:00 PM79 °FHaze.6 mph65%29.89 "Hg3 mi
8:30 PM79 °FHaze.7 mph65%29.89 "Hg2 mi
8:00 PM81 °FPassing clouds.9 mph54%29.86 "Hg2 mi
7:30 PM81 °FPassing clouds.7 mph54%29.86 "Hg2 mi
7:00 PM81 °FPassing clouds.8 mph54%29.86 "Hg3 mi
6:30 PM82 °FPassing clouds.9 mph42%29.86 "Hg4 mi
6:00 PM84 °FPassing clouds.9 mph33%29.83 "Hg4 mi
5:30 PM84 °FPassing clouds.10 mph31%29.83 "Hg4 mi
5:00 PM86 °FScattered clouds.7 mph27%29.83 "Hg3 mi
4:30 PM84 °FScattered clouds.6 mph31%29.83 "Hg3 mi
4:00 PM86 °FScattered clouds.8 mph27%29.83 "Hg3 mi
3:30 PM86 °FScattered clouds.9 mph27%29.86 "Hg3 mi
3:00 PM86 °FScattered clouds.10 mph25%29.86 "Hg2 mi
2:30 PM84 °FScattered clouds.10 mph25%29.86 "Hg2 mi
2:00 PM84 °FScattered clouds.8 mph33%29.89 "Hg2 mi
Weather by CustomWeather, © 2016

See weather overviewHow to use our weather pages